Weather in Magtymguly

Turkmenistan     38°26′05″N   56°17′21″E
temp.,
°C
wind,
m/s
gust,
m/s
humid.,
%
clouds,
%
prec.,
mm/h
press.,
hPa
HPBL,
m
5 march, fri
fri523:00+5ese128540 0.3 102922
02:00+5ene57801 0.0 1025105
05:00+4ene688036 0.0 1022144
08:00+5ene797467 0.0 1021138
11:00+11ene675579 0.0 1017259
14:00+18ene463159 0.0 1012965
17:00+18ne453648 0.0 1010283
20:00+10ssw7126677 0.1 1013785
6 march, sat
sat623:00+7ssw5108689 3.0 1017658
02:00+6wsw91189100 2.3 1018684
05:00+6w6990100 3.3 1020632
08:00+5w5793100 1.3 1022469
11:00+6wsw6886100 2.2 1024616
14:00+7w5677100 0.3 1024730
17:00+8wsw4572100 0.4 1023760
20:00+6sse128070 0.1 102334
7 march, sun
sun723:00+6se237936 0.1 102224
02:00+5ese44780 0.0 102044
05:00+4ese44710 0.0 101742
08:00+4ese45580 0.0 101639
11:00+12se45360 0.0 1015366
14:00+17s442022 0.0 10131164
17:00+17w551928 0.0 10131335
20:00+11w344172 0.0 101684
8 march, mon
mon823:00+8sw7116970 0.0 1019696
02:00+6sw71084100 0.1 1021844
05:00+6sw5783100 0.1 1021657
08:00+5sw238386 0.1 1023312
11:00+8ssw136756 0.1 1023800
14:00+11nne225321 0.0 1020956
17:00+11nne445323 0.0 1017661
20:00+9ene5663100 0.0 1016293
9 march, tue
tue923:00+8ene4568100 0.0 1015117
02:00+7ene226953 0.0 101328
05:00+6n117449 0.0 101222
08:00+6wsw127648 0.0 101322
11:00+9wsw676265 0.0 1015717
14:00+10wsw7760100 0.0 10141017
17:00+10wsw5654100 0.0 10141191
20:00+8sw5772100 0.5 1016846